Durango, Mexico

5:11 AM CDT on April 26, 2017 (GMT -0500)
Durango

Weather History for MMDO - August, 2013

Change the Weather History Date:

Tuesday, August 27, 2013

  Actual Average Record
Temperature  
Mean Temperature 68 °F -  
Max Temperature 76 °F 78 °F 88 °F (2015)
Min Temperature 60 °F 54 °F 51 °F (2015)
Cooling Degree Days 3    
Growing Degree Days 18 (Base 50)    
Moisture  
Dew Point 60 °F    
Average Humidity 83    
Maximum Humidity 94    
Minimum Humidity 60    
Precipitation  
Precipitation 0.39 in - - ()
Sea Level Pressure  
Sea Level Pressure 30.00 in    
Wind  
Wind Speed 3 mph ()    
Max Wind Speed 15 mph    
Max Gust Speed -    
Visibility 10.0 miles    
Events Rain    
Averages and records for this station are not official NWS values.
T = Trace of Precipitation, MM = Missing Value Source: Averaged Metar Reports

Daily Weather History Graph

Daily Weather History Graph

Search for Another Location

Airport or City:

Trip Planner

Search our weather history database for the weather conditions in past years. The results will help you decide how hot, cold, wet, or windy it might be!

Date:

Astronomy

Aug. 27, 2013 Rise Set
Actual Time 7:37 AM CDT 8:20 PM CDT
Civil Twilight 7:14 AM CDT 8:43 PM CDT
Nautical Twilight 6:47 AM CDT 9:11 PM CDT
Astronomical Twilight 6:19 AM CDT 9:38 PM CDT
Moon 12:19 AM CDT (8/27) 1:50 PM CDT (8/27)
Length of Visible Light 13h 29m
Length of Day
12h 42m
Waning Gibbous, 57% of the Moon is Illuminated
Aug 27
Waning Gibbous
Aug 28
Last Quarter
Sep 5
New
Sep 12
First Quarter
Sep 19
Full

Hourly Weather History & Observations

Time (CDT) Temp. Dew Point Humidity Pressure Visibility Wind Dir Wind Speed Gust Speed Precip Events Conditions
12:56 AM 64 °F 60 °F 82% 29.79 in 6 mi NNE 2.2 mph - -   Overcast
3:56 AM 63 °F 59 °F 83% 29.78 in 6 mi Calm Calm - -   Overcast
6:23 AM 60.8 °F 59.0 °F 94% 30.18 in 8.0 mi Calm Calm - N/A   Overcast
6:42 AM 60.8 °F 59.0 °F 94% 29.85 in 8.0 mi Calm Calm - N/A   Overcast
6:56 AM 61 °F 59 °F 92% 29.81 in 6 mi Calm Calm - -   Partly Cloudy
7:41 AM 60.8 °F 59.0 °F 94% 30.19 in 8.0 mi NNW 3.5 mph - N/A   Overcast
8:45 AM 60.8 °F 57.2 °F 88% 30.20 in 12.0 mi NNE 6.9 mph - N/A   Overcast
9:47 AM 62.6 °F 59.0 °F 88% 29.87 in 12.0 mi NE 5.8 mph - N/A   Overcast
9:58 AM 63 °F 60 °F 85% 29.87 in 31 mi NE 2.2 mph - -   Partly Cloudy
10:45 AM 64.4 °F 59.0 °F 83% 30.23 in 12.0 mi NE 8.1 mph - N/A   Overcast
11:40 AM 66.2 °F 57.2 °F 73% 30.23 in 12.0 mi ENE 5.8 mph - N/A   Overcast
12:46 PM 68.0 °F 57.2 °F 68% 29.80 in 14.0 mi NE 8.1 mph - N/A   Overcast
12:58 PM 69 °F 60 °F 64% 29.86 in 31 mi Calm Calm - -   Overcast
1:28 PM 64.4 °F 59.0 °F 83% 30.21 in 7.0 mi SE 6.9 mph - N/A   Overcast
1:47 PM 64.4 °F 59.0 °F 83% 30.20 in 12.0 mi East 4.6 mph - N/A   Overcast
2:41 PM 71.6 °F 57.2 °F 60% 30.16 in 12.0 mi East 5.8 mph - N/A   Overcast
3:43 PM 71.6 °F 57.2 °F 60% 29.73 in 14.0 mi ESE 5.8 mph - N/A   Overcast
3:56 PM 67 °F 64 °F 86% 29.78 in 31 mi West 2.2 mph - - Rain Light Rain
4:15 PM 66.2 °F 62.6 °F 88% 30.15 in 12.0 mi SSE 6.9 mph - N/A Rain Light Rain
4:28 PM 66.2 °F 60.8 °F 83% 30.13 in 12.0 mi Calm Calm - N/A   Overcast
4:46 PM 68.0 °F 60.8 °F 78% 30.12 in 12.0 mi WNW 3.5 mph - N/A   Overcast
5:41 PM 62.6 °F 59.0 °F 88% 30.14 in 3.0 mi East 15.0 mph - N/A Rain Rain
6:00 PM 60.8 °F 59.0 °F 94% 30.13 in 8.0 mi NNE 3.5 mph - N/A Rain Light Rain
6:10 PM 62.6 °F 60.8 °F 94% 30.13 in 10.0 mi NE 3.5 mph - N/A   Overcast
6:43 PM 64.4 °F 60.8 °F 88% 29.74 in 10.0 mi ENE 6.9 mph - N/A   Overcast
6:50 PM 67 °F 62 °F 79% 29.75 in 19 mi ESE 4.5 mph - -   Partly Cloudy
7:40 PM 64.4 °F 60.8 °F 88% 30.15 in 10.0 mi ENE 4.6 mph - N/A   Overcast
9:50 PM 64 °F 61 °F 87% 29.77 in 6 mi ENE 2.2 mph - -   Partly Cloudy